Time,TemperatureF,DewpointF,PressureIn,WindDirection,WindDirectionDegrees,WindSpeedMPH,WindSpeedGustMPH,Humidity,HourlyPrecipIn,Conditions,Clouds,dailyrainin,SolarRadiationWatts/m^2,SoftwareType,DateUTC
2013-10-29 00:09:00,68.8,66.0,29.92,SSE,163,0.0,-999.0,89,-99.99,,,0.00,0,weatherlink.com 1.10,2013-10-28 23:09:00,
2013-10-29 00:25:00,68.7,65.0,29.92,SSE,163,0.0,-999.0,89,-99.99,,,0.00,0,weatherlink.com 1.10,2013-10-28 23:25:00,
2013-10-29 00:39:00,68.7,65.0,29.92,SSE,164,0.0,-999.0,89,-99.99,,,0.00,0,weatherlink.com 1.10,2013-10-28 23:39:00,
2013-10-29 00:55:00,68.8,66.0,29.91,South,173,0.0,-999.0,89,-99.99,,,0.00,0,weatherlink.com 1.10,2013-10-28 23:55:00,
2013-10-29 01:10:00,68.8,66.0,29.91,South,173,0.0,-999.0,90,-99.99,,,0.00,0,weatherlink.com 1.10,2013-10-29 00:10:00,
2013-10-29 01:26:00,68.8,66.0,29.90,South,173,0.0,-999.0,90,-99.99,,,0.00,0,weatherlink.com 1.10,2013-10-29 00:26:00,
2013-10-29 01:40:00,69.0,66.0,29.90,South,181,1.0,-999.0,90,-99.99,,,0.00,0,weatherlink.com 1.10,2013-10-29 00:40:00,
2013-10-29 01:56:00,69.2,66.0,29.90,SSW,202,3.0,-999.0,90,-99.99,,,0.00,0,weatherlink.com 1.10,2013-10-29 00:56:00,
2013-10-29 02:11:00,69.5,67.0,29.91,SW,220,3.0,-999.0,90,-99.99,,,0.00,0,weatherlink.com 1.10,2013-10-29 01:11:00,
2013-10-29 02:25:00,69.4,66.0,29.91,WSW,243,3.0,-999.0,90,-99.99,,,0.00,0,weatherlink.com 1.10,2013-10-29 01:25:00,
2013-10-29 02:41:00,69.6,67.0,29.91,WSW,255,4.0,-999.0,90,-99.99,,,0.00,0,weatherlink.com 1.10,2013-10-29 01:41:00,
2013-10-29 02:56:00,69.5,67.0,29.90,WSW,252,2.0,-999.0,91,-99.99,,,0.00,0,weatherlink.com 1.10,2013-10-29 01:56:00,
2013-10-29 03:12:00,69.5,67.0,29.90,WSW,248,5.0,-999.0,90,-99.99,,,0.00,0,weatherlink.com 1.10,2013-10-29 02:12:00,
2013-10-29 03:27:00,69.3,67.0,29.90,WSW,253,5.0,-999.0,91,-99.99,,,0.00,0,weatherlink.com 1.10,2013-10-29 02:27:00,
2013-10-29 03:41:00,69.2,67.0,29.89,West,259,5.0,-999.0,91,-99.99,,,0.00,0,weatherlink.com 1.10,2013-10-29 02:41:00,
2013-10-29 03:57:00,68.9,66.0,29.89,West,262,4.0,-999.0,91,-99.99,,,0.00,0,weatherlink.com 1.10,2013-10-29 02:57:00,
2013-10-29 04:12:00,68.9,66.0,29.89,West,273,4.0,-999.0,91,-99.99,,,0.00,0,weatherlink.com 1.10,2013-10-29 03:12:00,
2013-10-29 04:27:00,68.8,66.0,29.89,West,267,4.0,-999.0,91,-99.99,,,0.00,0,weatherlink.com 1.10,2013-10-29 03:27:00,
2013-10-29 04:43:00,68.9,66.0,29.89,West,267,0.0,-999.0,91,-99.99,,,0.00,0,weatherlink.com 1.10,2013-10-29 03:43:00,
2013-10-29 04:58:00,69.0,66.0,29.89,West,267,0.0,-999.0,91,-99.99,,,0.00,0,weatherlink.com 1.10,2013-10-29 03:58:00,
2013-10-29 05:12:00,68.8,66.0,29.89,West,267,0.0,-999.0,90,-99.99,,,0.00,0,weatherlink.com 1.10,2013-10-29 04:12:00,
2013-10-29 05:28:00,67.9,65.0,29.89,NE,55,3.0,-999.0,90,-99.99,,,0.00,0,weatherlink.com 1.10,2013-10-29 04:28:00,
2013-10-29 05:43:00,67.6,65.0,29.89,ENE,72,0.0,-999.0,91,-99.99,,,0.00,0,weatherlink.com 1.10,2013-10-29 04:43:00,
2013-10-29 05:59:00,67.2,64.0,29.89,ENE,75,0.0,-999.0,90,-99.99,,,0.00,0,weatherlink.com 1.10,2013-10-29 04:59:00,
2013-10-29 06:13:00,66.9,64.0,29.89,ENE,74,0.0,-999.0,91,-99.99,,,0.00,0,weatherlink.com 1.10,2013-10-29 05:13:00,
2013-10-29 06:29:00,66.7,64.0,29.88,ENE,74,0.0,-999.0,91,-99.99,,,0.00,0,weatherlink.com 1.10,2013-10-29 05:29:00,
2013-10-29 06:44:00,66.5,64.0,29.88,ENE,63,0.0,-999.0,91,-99.99,,,0.00,0,weatherlink.com 1.10,2013-10-29 05:44:00,
2013-10-29 07:00:00,66.4,64.0,29.89,ENE,63,0.0,-999.0,91,-99.99,,,0.00,0,weatherlink.com 1.10,2013-10-29 06:00:00,
2013-10-29 07:14:00,66.4,64.0,29.90,ENE,63,0.0,-999.0,91,-99.99,,,0.00,0,weatherlink.com 1.10,2013-10-29 06:14:00,
2013-10-29 07:30:00,66.4,64.0,29.91,ENE,63,0.0,-999.0,91,-99.99,,,0.00,7,weatherlink.com 1.10,2013-10-29 06:30:00,
2013-10-29 07:45:00,66.8,64.0,29.91,NNE,30,4.0,-999.0,91,-99.99,,,0.00,21,weatherlink.com 1.10,2013-10-29 06:45:00,
2013-10-29 08:00:00,67.1,65.0,29.91,NNE,32,3.0,-999.0,92,-99.99,,,0.00,37,weatherlink.com 1.10,2013-10-29 07:00:00,
2013-10-29 08:15:00,67.4,65.0,29.92,NE,53,3.0,-999.0,92,-99.99,,,0.00,65,weatherlink.com 1.10,2013-10-29 07:15:00,
2013-10-29 08:31:00,67.7,65.0,29.92,NE,47,6.0,-999.0,92,-99.99,,,0.00,39,weatherlink.com 1.10,2013-10-29 07:31:00,
2013-10-29 08:45:00,67.7,65.0,29.92,NE,45,5.0,-999.0,92,-99.99,,,0.00,44,weatherlink.com 1.10,2013-10-29 07:45:00,
2013-10-29 09:01:00,67.2,65.0,29.93,NE,56,11.0,-999.0,91,-99.99,,,0.00,56,weatherlink.com 1.10,2013-10-29 08:01:00,
2013-10-29 09:16:00,68.3,65.0,29.93,NE,46,10.0,-999.0,89,-99.99,,,0.00,253,weatherlink.com 1.10,2013-10-29 08:16:00,
2013-10-29 09:31:00,68.8,65.0,29.93,NE,46,10.0,-999.0,86,-99.99,,,0.00,345,weatherlink.com 1.10,2013-10-29 08:31:00,
2013-10-29 09:47:00,69.1,64.0,29.93,NE,38,13.0,-999.0,84,-99.99,,,0.00,345,weatherlink.com 1.10,2013-10-29 08:47:00,
2013-10-29 10:02:00,69.6,64.0,29.94,ENE,67,18.0,-999.0,83,-99.99,,,0.00,381,weatherlink.com 1.10,2013-10-29 09:02:00,
2013-10-29 10:17:00,70.5,64.0,29.94,NE,47,14.0,-999.0,81,-99.99,,,0.00,519,weatherlink.com 1.10,2013-10-29 09:17:00,
2013-10-29 10:32:00,70.5,64.0,29.94,NE,51,11.0,-999.0,79,-99.99,,,0.00,401,weatherlink.com 1.10,2013-10-29 09:32:00,
2013-10-29 10:47:00,70.9,64.0,29.94,NNE,13,15.0,-999.0,78,-99.99,,,0.00,406,weatherlink.com 1.10,2013-10-29 09:47:00,
2013-10-29 11:02:00,70.3,64.0,29.93,ENE,59,9.0,-999.0,79,-99.99,,,0.00,311,weatherlink.com 1.10,2013-10-29 10:02:00,
2013-10-29 11:18:00,70.2,63.0,29.92,NE,55,11.0,-999.0,78,-99.99,,,0.00,114,weatherlink.com 1.10,2013-10-29 10:18:00,
2013-10-29 11:33:00,70.3,63.0,29.93,ENE,63,9.0,-999.0,78,-99.99,,,0.00,192,weatherlink.com 1.10,2013-10-29 10:33:00,
2013-10-29 11:47:00,70.1,63.0,29.92,East,81,5.0,-999.0,78,-99.99,,,0.00,199,weatherlink.com 1.10,2013-10-29 10:47:00,
2013-10-29 12:03:00,70.2,63.0,29.92,NE,36,6.0,-999.0,78,-99.99,,,0.00,274,weatherlink.com 1.10,2013-10-29 11:03:00,
2013-10-29 12:18:00,71.5,63.0,29.91,ENE,75,12.0,-999.0,75,-99.99,,,0.00,483,weatherlink.com 1.10,2013-10-29 11:18:00,
2013-10-29 12:34:00,71.1,63.0,29.89,ENE,57,15.0,-999.0,75,-99.99,,,0.00,185,weatherlink.com 1.10,2013-10-29 11:34:00,
2013-10-29 12:48:00,72.1,63.0,29.89,NE,53,6.0,-999.0,73,-99.99,,,0.00,591,weatherlink.com 1.10,2013-10-29 11:48:00,
2013-10-29 13:04:00,71.5,63.0,29.89,ENE,71,13.0,-999.0,74,-99.99,,,0.00,272,weatherlink.com 1.10,2013-10-29 12:04:00,
2013-10-29 13:19:00,71.9,62.0,29.87,ENE,64,10.0,-999.0,72,-99.99,,,0.00,234,weatherlink.com 1.10,2013-10-29 12:19:00,
2013-10-29 13:34:00,71.6,63.0,29.86,ENE,61,4.0,-999.0,73,-99.99,,,0.00,236,weatherlink.com 1.10,2013-10-29 12:34:00,
2013-10-29 13:49:00,71.1,62.0,29.86,ENE,58,13.0,-999.0,73,-99.99,,,0.00,239,weatherlink.com 1.10,2013-10-29 12:49:00,
2013-10-29 14:05:00,70.5,61.0,29.88,NE,44,4.0,-999.0,73,-99.99,,,0.00,60,weatherlink.com 1.10,2013-10-29 13:05:00,
2013-10-29 14:20:00,69.7,61.0,29.88,NE,50,13.0,-999.0,74,-99.99,,,0.00,51,weatherlink.com 1.10,2013-10-29 13:20:00,
2013-10-29 14:36:00,68.7,61.0,29.87,NE,46,17.0,-999.0,76,-99.99,,,0.00,56,weatherlink.com 1.10,2013-10-29 13:36:00,
2013-10-29 14:50:00,67.6,61.0,29.86,ENE,69,14.0,-999.0,79,-99.99,,,0.00,14,weatherlink.com 1.10,2013-10-29 13:50:00,
2013-10-29 15:06:00,66.5,61.0,29.85,NE,47,18.0,-999.0,81,-99.99,,,0.00,5,weatherlink.com 1.10,2013-10-29 14:06:00,
2013-10-29 15:21:00,65.4,60.0,29.82,ENE,58,12.0,-999.0,83,-99.99,,,0.00,0,weatherlink.com 1.10,2013-10-29 14:21:00,
2013-10-29 19:12:00,59.3,57.0,29.94,NE,43,9.0,-999.0,92,-99.99,,,0.03,0,weatherlink.com 1.10,2013-10-29 18:12:00,
2013-10-29 19:21:00,59.3,57.0,29.94,North,5,8.0,-999.0,92,-99.99,,,0.03,0,weatherlink.com 1.10,2013-10-29 18:21:00,
2013-10-29 19:37:00,59.3,57.0,29.95,NNE,15,5.0,-999.0,92,-99.99,,,0.03,0,weatherlink.com 1.10,2013-10-29 18:37:00,
2013-10-29 19:52:00,59.4,57.0,29.96,North,5,4.0,-999.0,92,-99.99,,,0.03,0,weatherlink.com 1.10,2013-10-29 18:52:00,
2013-10-29 20:07:00,59.4,57.0,29.95,NE,41,17.0,-999.0,92,-99.99,,,0.04,0,weatherlink.com 1.10,2013-10-29 19:07:00,
2013-10-29 20:23:00,59.3,57.0,29.96,NNE,17,5.0,-999.0,92,-99.99,,,0.04,0,weatherlink.com 1.10,2013-10-29 19:23:00,
2013-10-29 20:37:00,59.4,57.0,29.97,NNE,25,15.0,-999.0,92,-99.99,,,0.04,0,weatherlink.com 1.10,2013-10-29 19:37:00,
2013-10-29 20:53:00,59.4,57.0,29.97,NE,46,15.0,-999.0,92,-99.99,,,0.04,0,weatherlink.com 1.10,2013-10-29 19:53:00,
2013-10-29 21:08:00,59.4,57.0,29.98,NE,49,4.0,-999.0,92,-99.99,,,0.05,0,weatherlink.com 1.10,2013-10-29 20:08:00,
2013-10-29 21:23:00,59.3,57.0,29.98,NNE,28,7.0,-999.0,92,-99.99,,,0.05,0,weatherlink.com 1.10,2013-10-29 20:23:00,
2013-10-29 21:38:00,59.2,57.0,29.98,North,11,5.0,-999.0,92,-99.99,,,0.06,0,weatherlink.com 1.10,2013-10-29 20:38:00,
2013-10-29 21:53:00,59.2,57.0,30.00,NE,34,7.0,-999.0,92,-99.99,,,0.06,0,weatherlink.com 1.10,2013-10-29 20:53:00,
2013-10-29 22:08:00,59.1,57.0,30.00,NNE,29,6.0,-999.0,92,-99.99,,,0.06,0,weatherlink.com 1.10,2013-10-29 21:08:00,
2013-10-29 22:23:00,59.0,57.0,30.00,NNE,19,6.0,-999.0,92,-99.99,,,0.06,0,weatherlink.com 1.10,2013-10-29 21:23:00,
2013-10-29 22:39:00,59.0,57.0,30.00,NE,36,14.0,-999.0,92,-99.99,,,0.06,0,weatherlink.com 1.10,2013-10-29 21:39:00,
2013-10-29 22:54:00,58.8,57.0,30.00,North,11,9.0,-999.0,92,-99.99,,,0.06,0,weatherlink.com 1.10,2013-10-29 21:54:00,
2013-10-29 23:09:00,58.4,56.0,29.99,NNW,348,11.0,-999.0,91,-99.99,,,0.06,0,weatherlink.com 1.10,2013-10-29 22:09:00,
2013-10-29 23:40:00,57.9,55.0,29.99,North,360,11.0,-999.0,90,-99.99,,,0.07,0,weatherlink.com 1.10,2013-10-29 22:40:00,
2013-10-29 23:54:00,57.9,55.0,29.99,NNE,24,13.0,-999.0,90,-99.99,,,0.07,0,weatherlink.com 1.10,2013-10-29 22:54:00,